Tracking 17857 objects as of 29-September-2016
HD Live streaming from Space Station
objects crossing your sky now

SL-14 R/B

Track SL-14 R/B now!
10-day predictions


NORAD ID: 16736
Int'l Code: 1986-039B
Perigee: 943.9 km
Apogee: 964.7 km
Inclination: 82.5 °
Period: 104.0 minutes
Semi major axis: 7325 km
RCS: 5.1168 m2 (large)
Launch date: May 27, 1986
Source: Commonwealth of Independent States (former USSR) (CIS)
Launch site: PLESETSK MISSILE AND SPACE COMPLEX (PKMTR)

Note: This is a ROCKET BODY
Your satellite tracking list
Your tracking list is empty





NASA's NSSDC Master Catalog

Two Line Element Set (TLE):
1 16736U 86039B   16273.04743555  .00000015  00000-0 -20154-6 0  9996
2 16736  82.5370 235.2341 0014205 110.3703 249.8985 13.84738021533561
Source of the keplerian elements: AFSPC

N2YO: 1007